This demonstration page uses our WeatherBlox Daily Observations layout. Learn more.

Left ArrowRight Arrow

41.55636, -103.73856

Hourly Observations for November 30, 2022

Temp ( °F °C ) Dew Point ( °F °C ) Humidity (%) Winds ( mph kmh ) Pressure ( in mb ) Visibility ( mi km ) Precip ( " mm )
12:55 am 00:55 Clear 6 -14.6 0 -17.6 78 78 W 6 9 30.32 1027 10 16 0.00 0.00
1:55 am 01:55 Clear 7 -13.8 2 -16.8 78 78 W 6 9 30.33 1027 10 16 0.00 0.00
2:55 am 02:55 Clear 6 -14.2 0 -18 73 73 WNW 5 7 30.34 1028 10 16 0.00 0.00
3:55 am 03:55 Clear 7 -14.1 0 -17.6 75 75 W 3 6 30.35 1028 10 16 0.00 0.00
4:55 am 04:55 Clear 8 -13.5 0 -17.7 70 70 WSW 6 9 30.37 1029 10 16 0.00 0.00
5:55 am 05:55 Clear 6 -14.2 1 -17.1 79 79 WSW 7 11 30.42 1030 10 16 0.00 0.00
6:55 am 06:55 Clear 4 -15.8 -3 -19.6 72 72 SSW 6 9 30.45 1031 10 16 0.00 0.00
7:55 am 07:55 Sunny 9 -12.8 1 -17.3 69 69 SW 7 11 30.42 1030 10 16 0.00 0.00
8:55 am 08:55 Sunny 16 -9.1 7 -13.8 69 69 SW 14 22 30.38 1029 10 16 0.00 0.00
9:55 am 09:55 Sunny 19 -7.5 7 -13.9 60 60 ESE 7 11 30.37 1029 10 16 0.00 0.00
10:55 am 10:55 Sunny 22 -5.4 8 -13.5 53 53 SSW 3 6 30.32 1027 10 16 0.00 0.00
11:55 am 11:55 Sunny 23 -5.1 10 -12.1 58 58 SSW 20 31 30.25 1024 10 16 0.00 0.00
12:55 pm 12:55 Sunny 25 -3.9 12 -11.2 57 57 SW 31 50 30.18 1022 10 16 0.00 0.00
1:55 pm 13:55 Sunny 26 -3.2 15 -9.5 62 62 SW 33 54 30.12 1020 10 16 0.00 0.00
2:55 pm 14:55 Sunny 26 -3.4 16 -8.7 67 67 SW 25 41 30.12 1020 10 16 0.00 0.00
3:55 pm 15:55 Mostly Sunny 28 -2.3 19 -7.4 68 68 SW 28 44 30.09 1019 10 16 0.00 0.00
4:55 pm 16:55 Clear 28 -2.2 19 -7.5 67 67 SSW 32 52 30.05 1018 10 16 0.00 0.00
5:55 pm 17:55 Clear 29 -1.4 20 -6.7 67 67 SW 30 48 30.03 1017 10 16 0.00 0.00
6:55 pm 18:55 Clear 29 -1.5 20 -6.6 68 68 SW 38 61 30.02 1017 10 16 0.00 0.00
7:55 pm 19:55 Clear 29 -1.4 20 -6.7 67 67 SW 36 57 30.00 1016 10 16 0.00 0.00
8:55 pm 20:55 Clear 29 -1.5 19 -7 66 66 SW 32 52 29.95 1014 10 16 0.00 0.00
9:55 pm 21:55 Clear 26 -3.5 17 -8.6 68 68 NNW 7 11 29.98 1015 10 16 0.00 0.00
10:55 pm 22:55 Clear 29 -1.9 17 -8.4 61 61 WSW 14 22 29.95 1014 10 16 0.00 0.00
11:55 pm 23:55 Clear 22 -5.3 15 -9.6 72 72 SW 16 26 29.93 1014 10 16 0.00 0.00

Powered by AerisWeather